Archival Weather

Heathrow

London, United Kingdom (EGLL)

Report from: Wednesday, December 6, 2023 4:50 PM GMT
Current time: Saturday, March 2, 2024 10:09 AM GMT

Current weather – Weather history – Daily summaries
Weather forecast

Temperature2.0°C (35.6°F)
Wind chill-0.7°C (30.7°F)
Dew point1.0°C (33.8°F)
Winds 5 kts (2.6 m/s, 5.8 mph) East (100°)
Visibility6.2 mi. (10 km)
Clouds Scattered clouds 4,100 ft. (1,250 m)
Altimeter30.03 in.Hg (1017 mB)
Relative humidity93 %
Density altitude-1,611 ft. (-491 m)
Remarks Fully automated report
Corrected report
No significant changes expected in the next two hours
Flight conditions Visual Meteorological Conditions
Raw dataCOR EGLL 061650Z AUTO 10005KT 9999 SCT041 02/01 Q1017 NOSIG
An error has occurred. This application may no longer respond until reloaded. Reload 🗙